THORAD AGENA D DEB, 4913

Orbit data source: Space-Track

THORAD AGENA D DEB, 4913 is space debris in SSO originally from a launch on Wed, 08 Apr 1970 UTC launched from the Air Force Western Test Range (AFWTR). Debris objects in space refer to the collection of defunct objects orbiting the Earth. Examples of debris include non-operational satellites, rocket bodies, and fragments generated from explosions, collisions, or faulty payload assembly.

Loading next visibility...
Identifier
4913, 1970-025FK
Orbit
SSO
Country
Flag of USUS
Related business
Manufacturer
Unknown
Mission
Spacecraft
Bus & Motor
Unknown
Mass
Unknown
Launch date (UTC)
1970-04-08 (56 years ago)
Launch vehicle
Unknown
Launch site
Air Force Western Test Range (AFWTR)
Object type
Payload
Rocket body
Debris
Shape & HBR
Unknown shape, 0.1 m
Radar Cross Section
Small (<0.1 m²)

Expand to show TLE details & history
Last TLE update: 6 hours ago

TLE from 6 hours ago
0 THORAD AGENA D DEB
1  4913U 70025FK  26124.20617265  .00000154  00000-0  12484-3 0  9997
2  4913  99.8060 215.9974 0137499 319.0654  40.0249 14.01642417847827
Epoch: 2026-05-04T04:56Z
TLE epoch observation values (Epoch: 2026-05-04T04:56:53.316Z)
Latitude
-0.00001°
Longitude
-80.32345°
Altitude
815.022 km
Speed
7.485 km/s
True Right ascension
14h 23m 59s
True Declination
0° 00' 00"
Sunlit
Object was in full shadow at epoch
Visualization orbit readout
Latitude
Unknown
Longitude
Unknown
Altitude
Unknown
Speed
Unknown
Apparent Right ascension
Unknown
Apparent Declination
Unknown
Sunlit
N/A
Visualization observer readout
Local Sidereal Time
18:44:38
Azimuth
Unknown
Elevation
Unknown
Doppler factor
Unknown
Orbital elements
Apogee altitude
985.223 km
Perigee altitude
785.479 km
Semi-major axis
7,263.488 km
Eccentricity
0.01375
Inclination
99.806°
RAAN
215.9974°
Arg. of periapsis
319.0654°
True anomaly
41.05167°
Mean anomaly
40.0249°
Eccentric anomaly
40.53693°
Mean motion
3.50611 °/min
Orbital period
102.68 mins
BSTAR
0.00012484
Loading maneuver chart data...
Computing Atmospheric mass density...

Documentation

Showing up to 5 results
|